[[{"header":{"parameterUnit":"m.s-1","parameterCategory":1,"la1":30.2991,"la2":30.254,"lo1":-89.0895,"lo2":-89.0444,"dy":0.0017,"dx":0.0017,"nx":28,"ny":28,"refTime":"2023-08-08T09:00:00:Z","depth":0,"parameterNumber":2,"parameterNumberName":"U-component_of_WINDS"},"data":[0,0,0,0,0,0,0,0,0,0,0,0,0,0,0,0,0,0,0,0,0,0,0,0,0,0,0,0,0,0,0,0,0,0,0,0,0,0,0,0,0,0,0,0,0,0,0,0,0,0,0,0,0,0,0,0,0,0,3.1135,3.1136,0,3.1251,3.1252,3.1254,3.118,3.1176,3.1173,3.117,3.1288,3.1294,3.13,0,0,0,0,0,0,0,0,0,0,0,0,0,3.0847,3.0853,3.1135,3.1136,3.1138,3.1251,3.1252,3.1254,3.118,3.1176,3.1172,3.1168,3.1286,3.1293,3.1301,0,0,0,0,0,0,0,0,0,0,0,0,0,3.0968,3.0855,3.1135,3.1115,3.1114,3.125,3.1252,3.1254,3.1181,3.1176,3.1171,3.1166,3.1283,3.1292,3.1302,3.1464,0,0,3.1331,3.1335,0,0,0,0,0,0,0,0,3.0962,3.0979,3.1116,3.1116,3.1116,3.1196,3.1194,3.1324,3.1183,3.1156,3.117,3.1164,3.1261,3.1272,3.1305,3.1469,3.1474,3.1332,3.1337,3.1342,3.1344,0,0,0,0,0,0,0,3.0953,3.0974,3.1181,3.1118,3.1118,3.1099,3.1111,3.1218,3.1236,3.1158,3.1153,3.1167,3.126,3.1296,3.1307,3.1476,3.1331,3.134,3.1346,3.1349,3.1776,3.1781,0,0,0,0,0,0,3.0947,3.0967,3.1177,3.1184,3.1025,3.1109,3.1121,3.1175,3.1235,3.1239,3.1172,3.1164,3.1283,3.1296,3.1311,3.1502,3.1341,3.135,3.1356,3.177,3.1777,3.1783,0,0,0,0,0,0,3.0941,3.0966,3.1172,3.1074,3.1099,3.1119,3.118,3.118,3.1216,3.1245,3.1248,3.1206,3.1279,3.1298,3.1426,3.1506,3.1355,3.1363,3.1763,3.1772,3.178,3.1888,0,0,0,0,0,0,3.0933,3.0965,3.1027,3.1076,3.1105,3.1286,3.1185,3.1186,3.1233,3.1223,3.1278,3.1282,3.1276,3.1412,3.1435,3.1516,3.1371,3.1756,3.1767,3.1777,3.1877,3.1899,3.1917,0,0,0,0,0,3.0923,3.1053,3.1031,3.1056,3.1183,3.1291,3.1307,3.1298,3.124,3.1302,3.132,3.128,3.1494,3.1426,3.1451,3.1536,3.1751,3.1764,3.1776,3.1868,3.1895,3.1917,0,0,0,0,0,0,3.1013,3.1059,3.1035,3.1185,3.1235,3.1278,3.1356,3.1327,3.1394,3.1382,3.1368,3.1381,3.1514,3.1538,3.1462,3.1694,3.1613,3.1631,3.1674,3.1699,3.1719,3.171,3.1379,0,0,0,0,0,3.105,3.1134,3.117,3.1299,3.1325,3.1337,3.1383,3.1372,3.1423,3.1443,3.1471,3.1521,3.1599,3.1651,3.1724,3.1881,3.189,3.1951,3.1971,3.1988,3.2003,3.2085,3.2112,3.1824,3.1824,3.1824,0,0,3.1128,3.1164,3.1218,3.1318,3.1355,3.1441,3.1355,3.145,3.1513,3.1458,3.1579,3.1602,3.1656,3.1798,3.1862,3.1822,3.2085,3.2004,3.2017,3.2023,3.2101,3.2128,3.2152,3.1833,3.1831,3.183,0,0,3.1314,3.135,3.146,3.1499,3.1556,3.1562,3.1589,3.1637,3.1649,3.1772,3.1731,3.1805,3.1941,3.1981,3.2019,3.2218,3.2182,3.2242,3.2347,3.2427,3.2449,3.2469,3.2538,3.2563,3.2258,3.2258,3.2259,0,3.1403,3.1532,3.1521,3.1619,3.1663,3.1616,3.1727,3.1765,3.1843,3.1874,3.1828,3.1996,3.203,3.2179,3.2227,3.2261,3.2289,3.2235,3.2447,3.2467,3.2486,3.2551,3.2577,3.2265,3.2264,3.2264,3.2263,0,3.1637,3.1727,3.1809,3.1885,3.1939,3.2043,3.2047,3.2102,3.2086,3.2097,3.2221,3.226,3.2339,3.2374,3.2361,3.2522,3.2495,3.2449,3.2366,3.252,3.2581,3.2606,3.2275,3.2272,3.227,3.2269,0,0,3.1883,3.1951,3.1981,3.2013,3.2072,3.2141,3.2242,3.232,3.2366,3.2422,3.2505,3.262,3.2577,3.262,3.261,3.268,3.2832,3.2625,3.2626,3.266,3.3009,3.3042,3.3072,3.281,3.2815,3.2818,3.3004,0,3.207,3.2246,3.2238,3.2403,3.2484,3.2441,3.2528,3.2573,3.2586,3.2656,3.267,3.2751,3.2689,3.2714,3.2782,3.28,3.2902,3.2786,3.2885,3.2889,3.2871,3.3104,3.314,3.3313,3.3028,3.3032,3.3035,0,3.2312,3.2374,3.2547,3.2591,3.2625,3.2704,3.2773,3.2842,3.2891,3.2895,3.2943,3.2921,3.3021,3.2938,3.3075,3.2996,3.3036,3.3051,3.3057,3.3065,3.297,3.3116,3.3368,3.3394,3.3073,3.307,3.3067,0,3.247,3.2598,3.2717,3.2747,3.2802,3.2858,3.2884,3.2928,3.2975,3.3036,3.3065,3.3137,3.3176,3.3231,3.3229,3.3168,3.3367,3.3284,3.3372,3.3372,3.3415,3.3412,3.3675,3.3444,3.3444,3.3443,3.3443,0,3.2679,3.2785,3.2788,3.2862,3.2979,3.2969,3.3085,3.3105,3.3144,3.3219,3.3187,3.3258,3.3251,3.3322,3.3321,3.3433,3.3452,3.3457,3.3455,3.3459,3.3458,3.3483,3.3471,3.345,3.3449,3.3447,3.3446,0,3.2875,3.2882,3.3008,3.305,3.3063,3.3148,3.3183,3.3252,3.3261,3.3357,3.3378,3.3393,3.3475,3.3479,3.3573,3.3572,3.3709,3.3694,3.3692,3.3689,3.3776,3.3767,3.4064,3.4101,3.3848,3.385,3.3852,0,3.3007,3.3087,3.3138,3.3186,3.3215,3.3293,3.334,3.3333,3.3383,3.3444,3.3505,3.3584,3.3646,3.3779,3.3798,3.3869,3.3855,3.3954,3.3866,3.3866,3.3854,3.3848,3.3855,3.3971,3.3974,3.3976,3.3978,0,3.3239,3.3238,3.3307,3.3377,3.3434,3.3489,3.354,3.3581,3.3579,3.3637,3.372,3.3769,3.3865,3.3943,3.4012,3.4037,3.4007,3.4006,3.403,3.4034,3.4028,3.403,3.3737,3.3999,3.3997,3.3995,3.3994,3.3993,3.3405,3.3474,3.352,3.3598,3.3635,3.3683,3.3749,3.3766,3.3836,3.3913,3.3905,3.3997,3.4042,3.4132,3.4163,3.4234,3.42,3.4235,3.4244,3.4252,3.426,3.4018,3.4247,3.4246,3.4246,3.4245,3.4245,0,3.3634,3.3661,3.3732,3.3804,3.3865,3.3832,3.3886,3.3938,3.402,3.4065,3.4127,3.4222,3.4297,3.4321,3.4394,3.4446,3.4434,3.4465,3.446,3.4466,3.4288,3.4259,3.4474,3.4474,3.4473,3.4473,3.4473,3.4473,3.376,3.3874,3.3878,3.4009,3.4035,3.4125,3.4159,3.4202,3.4238,3.4345,3.4407,3.4423,3.4459,3.4534,3.4601,3.4606,3.4633,3.467,3.4669,3.4502,3.4479,3.4457,3.4429,3.4677,3.4677,3.4841,3.4843,3.4844]},{"header":{"parameterUnit":"m.s-1","parameterCategory":1,"la1":30.2991,"la2":30.254,"lo1":-89.0895,"lo2":-89.0444,"dy":0.0017,"dx":0.0017,"nx":28,"ny":28,"refTime":"2023-08-08T09:00:00:Z","depth":0,"parameterNumber":3,"parameterNumberName":"V-component_of_WINDS"},"data":[0,0,0,0,0,0,0,0,0,0,0,0,0,0,0,0,0,0,0,0,0,0,0,0,0,0,0,0,0,0,0,0,0,0,0,0,0,0,0,0,0,0,0,0,0,0,0,0,0,0,0,0,0,0,0,0,0,0,3.5642,3.5644,0,3.5785,3.5787,3.5788,3.5749,3.5746,3.5743,3.574,3.5887,3.5893,3.59,0,0,0,0,0,0,0,0,0,0,0,0,0,3.5334,3.534,3.5642,3.5644,3.5646,3.5785,3.5787,3.5789,3.5749,3.5746,3.5742,3.5739,3.5885,3.5892,3.59,0,0,0,0,0,0,0,0,0,0,0,0,0,3.5472,3.5342,3.5642,3.5643,3.5644,3.5784,3.5787,3.5789,3.575,3.5746,3.5741,3.5737,3.5882,3.5892,3.5901,3.6049,0,0,3.5932,3.5936,0,0,0,0,0,0,0,0,3.5464,3.5483,3.5641,3.5643,3.5645,3.5745,3.5732,3.5876,3.5751,3.571,3.574,3.5735,3.5843,3.5856,3.5892,3.6056,3.6062,3.5932,3.5938,3.5943,3.5946,0,0,0,0,0,0,0,3.5454,3.5476,3.5699,3.5643,3.5646,3.5636,3.565,3.5759,3.5799,3.5713,3.5711,3.5728,3.5843,3.5883,3.5895,3.6065,3.5932,3.5941,3.5947,3.5951,3.6355,3.6359,0,0,0,0,0,0,3.5443,3.5469,3.5694,3.5703,3.5542,3.5645,3.5661,3.5717,3.5798,3.5806,3.5732,3.5726,3.5868,3.5884,3.59,3.6077,3.5943,3.5952,3.5958,3.635,3.6356,3.6361,0,0,0,0,0,0,3.5437,3.5464,3.5688,3.5585,3.5613,3.5655,3.5718,3.5722,3.5761,3.5812,3.5818,3.5765,3.5865,3.5886,3.6012,3.6082,3.5956,3.5965,3.6344,3.6352,3.6358,3.6434,0,0,0,0,0,0,3.5428,3.5462,3.5519,3.5587,3.5619,3.5798,3.5722,3.5728,3.5779,3.5772,3.5844,3.5852,3.5863,3.5997,3.6022,3.6093,3.5973,3.6338,3.6348,3.6356,3.6425,3.6443,3.6457,0,0,0,0,0,3.5417,3.5535,3.5522,3.5549,3.5691,3.5803,3.5821,3.5831,3.5784,3.5842,3.5874,3.585,3.607,3.6011,3.6038,3.6113,3.6334,3.6345,3.6355,3.6418,3.6439,3.6457,0,0,0,0,0,0,3.5475,3.5544,3.553,3.5674,3.5732,3.5796,3.5869,3.5853,3.5927,3.5918,3.5927,3.5944,3.6072,3.6105,3.6038,3.6259,3.6195,3.6212,3.6233,3.6254,3.627,3.6259,3.5981,0,0,0,0,0,3.5504,3.5589,3.5645,3.5766,3.5796,3.5827,3.5876,3.5879,3.594,3.5965,3.6006,3.6066,3.6149,3.6203,3.6282,3.6429,3.6444,3.6495,3.6511,3.6524,3.6538,3.6617,3.6639,3.6396,3.6396,3.6396,0,0,3.5566,3.5614,3.5667,3.5779,3.5824,3.5912,3.5849,3.5944,3.6008,3.5979,3.61,3.6132,3.62,3.6337,3.6399,3.6368,3.6608,3.6537,3.6547,3.6555,3.663,3.6653,3.6673,3.6404,3.6402,3.6401,0,0,3.5723,3.5768,3.5873,3.592,3.599,3.6009,3.6034,3.61,3.612,3.6241,3.622,3.6297,3.6439,3.6488,3.6531,3.6704,3.6684,3.6729,3.6814,3.689,3.6909,3.6926,3.6987,3.7009,3.6743,3.6743,3.6744,0,3.5791,3.5921,3.5929,3.6026,3.6075,3.6051,3.6157,3.6202,3.6294,3.6328,3.6292,3.6469,3.6513,3.666,3.6702,3.6738,3.6766,3.6721,3.6906,3.6923,3.6939,3.6997,3.702,3.6748,3.6748,3.6747,3.6747,0,3.6001,3.6092,3.6168,3.6256,3.6314,3.6415,3.6437,3.6494,3.6491,3.6514,3.6636,3.6688,3.6776,3.6811,3.681,3.6958,3.6936,3.6903,3.6839,3.6967,3.7022,3.7044,3.6755,3.6754,3.6752,3.6751,0,0,3.62,3.6289,3.6317,3.6356,3.643,3.65,3.6599,3.6685,3.6733,3.6797,3.6879,3.6999,3.6969,3.7018,3.7021,3.7088,3.722,3.7047,3.7049,3.7077,3.7385,3.7409,3.7434,3.7207,3.7211,3.7215,3.7379,0,3.6362,3.6536,3.6545,3.6703,3.6786,3.6763,3.6849,3.6904,3.6928,3.7001,3.7027,3.7111,3.7065,3.7094,3.716,3.719,3.7282,3.7178,3.7284,3.7287,3.7267,3.7463,3.749,3.7642,3.74,3.7404,3.7406,0,3.6576,3.6645,3.6811,3.6871,3.6906,3.6983,3.7061,3.7132,3.7193,3.7205,3.7259,3.7252,3.7352,3.7284,3.7421,3.7351,3.7394,3.7415,3.7421,3.7432,3.7355,3.7478,3.7691,3.7713,3.744,3.7437,3.7435,0,3.6703,3.6837,3.6953,3.6988,3.7061,3.7116,3.7149,3.7205,3.7255,3.7323,3.7356,3.7435,3.7478,3.7539,3.7553,3.7502,3.769,3.7624,3.7703,3.7703,3.7744,3.7741,3.7966,3.7772,3.7772,3.7772,3.7771,0,3.6883,3.6985,3.7011,3.7083,3.7196,3.7204,3.7316,3.7345,3.7395,3.7472,3.7457,3.7529,3.7544,3.7618,3.763,3.7741,3.7761,3.7773,3.7775,3.7775,3.7773,3.7804,3.7793,3.7778,3.7776,3.7775,3.7774,0,3.7045,3.7066,3.7191,3.725,3.7267,3.7348,3.7398,3.7466,3.7487,3.7584,3.7607,3.764,3.7727,3.7747,3.785,3.7858,3.799,3.7982,3.797,3.7969,3.8047,3.8039,3.8299,3.8333,3.8117,3.8119,3.8121,0,3.7158,3.7236,3.7303,3.7352,3.7388,3.7469,3.7519,3.753,3.7583,3.7656,3.7715,3.78,3.7869,3.8009,3.8042,3.8121,3.8114,3.8199,3.8126,3.8122,3.8114,3.811,3.8117,3.8214,3.8216,3.8218,3.8219,0,3.7358,3.7364,3.7437,3.7515,3.7575,3.7636,3.7695,3.7736,3.7754,3.7815,3.7903,3.7956,3.8061,3.8145,3.8224,3.8257,3.8242,3.8242,3.8264,3.8265,3.8254,3.826,3.8008,3.8236,3.8235,3.8233,3.8232,3.8232,3.7499,3.7566,3.7623,3.7705,3.7749,3.7804,3.787,3.7899,3.7972,3.8058,3.8059,3.8156,3.8212,3.8316,3.8354,3.8429,3.8402,3.8435,3.8443,3.8451,3.8458,3.8242,3.8443,3.8442,3.8442,3.8442,3.8441,0,3.7697,3.7731,3.7806,3.7888,3.7952,3.793,3.7993,3.8048,3.8133,3.8187,3.8254,3.8354,3.8435,3.8474,3.8554,3.8607,3.8601,3.8627,3.8624,3.8631,3.8477,3.845,3.863,3.863,3.863,3.863,3.863,3.863,3.7807,3.792,3.7932,3.8066,3.81,3.8194,3.8231,3.8281,3.8324,3.8437,3.8504,3.8528,3.8576,3.8659,3.8732,3.8741,3.8771,3.88,3.8806,3.8662,3.8642,3.8624,3.8598,3.8807,3.8807,3.8954,3.8955,3.8956]}]]